EW0415 Weather Reports


time (UTC)temp
C
wind
direction
speed
KPH
gust
KPH
rain 1hr
cm
rain 24hr
cm
rain mn
cm
humidity
%
barometer
mb
20260506151014 12 0 1.6 11.3 0.00 0.10 0.00 62 1028.5
20260506150510 12 303 0.0 6.4 0.00 0.10 0.00 62 1028.5
20260506150030 12 0 0.0 6.4 0.00 0.10 0.00 63 1028.4
20260506145514 12 0 0.0 9.7 0.00 0.10 0.00 63 1028.4
20260506145010 12 309 1.6 11.3 0.00 0.10 0.00 63 1028.4
20260506144529 12 165 3.2 11.3 0.00 0.10 0.00 64 1028.5
20260506144015 12 236 0.0 11.3 0.00 0.10 0.00 64 1028.4
20260506143509 12 237 3.2 14.5 0.00 0.10 0.00 64 1028.5
20260506143028 12 246 3.2 14.5 0.00 0.10 0.00 65 1028.5
20260506142513 12 169 1.6 8.0 0.00 0.10 0.10 66 1028.4
20260506142009 12 0 1.6 6.4 0.00 0.10 0.10 67 1028.4
20260506141528 12 208 1.6 4.8 0.00 0.10 0.10 67 1028.4
20260506141009 12 0 0.0 12.9 0.00 0.10 0.10 67 1028.3
20260506140510 12 211 1.6 12.9 0.00 0.10 0.10 67 1028.3
20260506140029 12 212 3.2 16.1 0.00 0.10 0.10 67 1028.2
20260506135510 12 168 1.6 16.1 0.00 0.10 0.10 68 1028.2
20260506135010 12 207 3.2 16.1 0.00 0.10 0.10 68 1028.2
20260506134530 12 189 1.6 9.7 0.00 0.10 0.10 68 1028.2
20260506134021 12 0 3.2 9.7 0.00 0.10 0.10 69 1028.2
20260506133041 12 188 1.6 8.0 0.00 0.10 0.10 69 1028.1
20260506132509 12 0 1.6 12.9 0.00 0.10 0.10 69 1028.0
20260506132010 13 200 1.6 14.5 0.00 0.10 0.10 69 1027.9
20260506131531 13 182 3.2 14.5 0.00 0.10 0.10 69 1027.8
20260506131010 13 0 1.6 11.3 0.00 0.10 0.10 69 1027.8
20260506130517 13 228 0.0 8.0 0.00 0.10 0.10 70 1027.8
20260506130028 13 0 0.0 8.0 0.00 0.10 0.10 70 1027.7
20260506125510 13 0 0.0 8.0 0.00 0.10 0.10 70 1027.7
20260506125009 13 0 1.6 8.0 0.00 0.10 0.10 70 1027.8
20260506124528 13 0 0.0 14.5 0.00 0.10 0.10 70 1027.7
20260506124009 13 219 1.6 14.5 0.00 0.10 0.10 70 1027.6
20260506123511 13 205 3.2 11.3 0.00 0.10 0.10 71 1027.6
20260506123028 13 206 1.6 9.7 0.00 0.10 0.10 72 1027.6
20260506122509 13 198 1.6 16.1 0.00 0.10 0.10 72 1027.4
20260506122007 13 227 3.2 16.1 0.00 0.10 0.10 73 1027.4
20260506121552 13 257 3.2 16.1 0.00 0.10 0.10 74 1027.4
20260506121012 13 0 1.6 8.0 0.00 0.10 0.10 75 1027.2
20260506120510 13 190 1.6 8.0 0.00 0.10 0.10 75 1027.3
20260506120035 13 0 0.0 9.7 0.00 0.10 0.10 76 1027.2
20260506115514 13 182 1.6 9.7 0.00 0.10 0.10 76 1027.1
20260506115016 13 169 3.2 12.9 0.00 0.10 0.10 76 1027.1
20260506114530 13 161 1.6 12.9 0.00 0.10 0.10 77 1027.1
20260506114016 13 0 0.0 8.0 0.00 0.10 0.10 77 1027.2
20260506113511 13 210 1.6 11.3 0.00 0.10 0.10 77 1027.0
20260506113030 13 209 1.6 11.3 0.00 0.10 0.10 78 1027.0
20260506112509 13 209 1.6 9.7 0.00 0.10 0.10 78 1026.9
20260506112009 13 218 1.6 9.7 0.00 0.10 0.10 78 1026.9
20260506111530 13 213 1.6 9.7 0.00 0.10 0.10 78 1026.7
20260506111011 13 0 1.6 8.0 0.00 0.10 0.10 78 1026.8
20260506110513 13 211 1.6 12.9 0.00 0.10 0.10 78 1026.7
20260506110033 13 0 0.0 12.9 0.00 0.10 0.10 78 1026.6
20260506105511 13 0 0.0 4.8 0.00 0.10 0.10 78 1026.6
20260506105011 13 226 1.6 6.4 0.00 0.10 0.10 78 1026.4
20260506104528 13 226 0.0 6.4 0.00 0.10 0.10 78 1026.6
20260506104008 13 0 1.6 6.4 0.00 0.10 0.10 79 1026.4
20260506103510 14 225 0.0 6.4 0.00 0.10 0.10 78 1026.4
20260506103032 14 0 0.0 6.4 0.00 0.10 0.10 78 1026.4
20260506102509 14 0 1.6 6.4 0.00 0.10 0.10 78 1026.2
20260506102014 14 0 0.0 9.7 0.00 0.10 0.10 78 1026.2
20260506101538 14 225 1.6 9.7 0.00 0.10 0.10 78 1026.1
20260506101014 14 223 1.6 9.7 0.00 0.10 0.10 79 1025.9
20260506100509 14 207 1.6 11.3 0.00 0.10 0.10 79 1025.8
20260506100032 14 206 1.6 11.3 0.00 0.10 0.10 78 1025.8
20260506095509 15 238 0.0 9.7 0.00 0.10 0.10 78 1025.8
20260506095009 15 0 1.6 11.3 0.00 0.10 0.10 79 1025.7
20260506094529 15 235 1.6 11.3 0.00 0.10 0.10 78 1025.6
20260506094009 15 244 1.6 11.3 0.00 0.10 0.10 78 1025.6
20260506093512 15 0 1.6 17.7 0.00 0.10 0.10 78 1025.5
20260506093029 15 283 4.8 17.7 0.00 0.10 0.10 77 1025.4
20260506092511 15 0 1.6 12.9 0.00 0.10 0.10 77 1025.3
20260506092013 15 161 3.2 11.3 0.00 0.10 0.10 76 1025.1
20260506091528 16 213 3.2 11.3 0.00 0.10 0.10 76 1025.0
20260506091010 16 221 3.2 8.0 0.00 0.10 0.10 76 1024.9
20260506090509 16 222 0.0 11.3 0.00 0.10 0.10 75 1024.8
20260506090029 16 221 1.6 11.3 0.00 0.10 0.10 75 1024.7
20260506085510 16 220 1.6 11.3 0.00 0.10 0.10 74 1024.6
20260506085009 16 250 0.0 8.0 0.00 0.10 0.10 74 1024.7
20260506084538 16 0 0.0 8.0 0.00 0.10 0.10 74 1024.6
20260506084009 16 0 1.6 8.0 0.00 0.10 0.10 73 1024.5
20260506083510 16 204 0.0 8.0 0.00 0.10 0.10 73 1024.5
20260506083033 17 0 0.0 8.0 0.00 0.10 0.10 73 1024.3
20260506082509 17 0 1.6 8.0 0.00 0.10 0.10 72 1024.2
20260506082009 17 0 0.0 6.4 0.00 0.10 0.10 72 1024.3
20260506081529 17 0 1.6 11.3 0.00 0.10 0.10 72 1024.1
20260506081010 17 221 1.6 11.3 0.00 0.10 0.10 70 1024.1
20260506080508 17 213 3.2 11.3 0.00 0.10 0.10 69 1024.0
20260506073510 17 207 3.2 17.7 0.00 0.10 0.10 67 1023.9
20260506073030 17 266 4.8 17.7 0.00 0.10 0.10 66 1023.8
20260506072510 17 263 3.2 12.9 0.00 0.10 0.10 66 1023.8
20260506072012 18 360 1.6 12.9 0.00 0.10 0.10 66 1023.8
20260506071530 18 360 3.2 12.9 0.00 0.10 0.10 66 1023.6
20260506071010 18 360 1.6 8.0 0.00 0.10 0.10 66 1023.6
20260506070507 18 360 3.2 16.1 0.00 0.10 0.10 66 1023.5
20260506062509 18 275 3.2 16.1 0.00 0.10 0.10 67 1023.4
20260506062012 18 227 3.2 16.1 0.00 0.10 0.10 68 1023.3
20260506061526 18 277 6.4 16.1 0.00 0.10 0.10 68 1023.3
20260506061011 18 205 3.2 16.1 0.00 0.10 0.10 69 1023.5
20260506060509 18 215 4.8 19.3 0.00 0.10 0.10 69 1023.4
20260506051007 16 277 4.8 20.9 0.00 0.10 0.10 77 1023.4
20260506050510 17 264 8.0 20.9 0.00 0.10 0.10 77 1023.5
20260506045010 17 285 1.6 11.3 0.00 0.10 0.10 78 1023.2
20260506044527 17 286 4.8 16.1 0.00 0.10 0.10 78 1023.2
20260506044008 17 254 4.8 17.7 0.00 0.10 0.10 79 1023.2
20260506043509 17 248 3.2 17.7 0.00 0.10 0.10 79 1023.2
20260506043028 17 0 4.8 14.5 0.00 0.10 0.10 80 1023.3
20260506042511 17 274 4.8 14.5 0.00 0.10 0.10 80 1023.3
20260506042011 17 211 3.2 19.3 0.00 0.10 0.10 81 1023.2
20260506041529 17 219 1.6 19.3 0.00 0.10 0.10 81 1023.2
20260506041011 16 155 4.8 17.7 0.00 0.10 0.10 81 1023.4
20260506040510 16 252 4.8 12.9 0.00 0.10 0.10 82 1023.4
20260506040037 16 251 3.2 12.9 0.05 0.10 0.10 83 1023.4
20260506035510 16 0 1.6 12.9 0.08 0.10 0.10 83 1023.5
20260506035011 16 256 3.2 12.9 0.08 0.10 0.10 83 1023.6
20260506034529 16 222 3.2 22.5 0.08 0.10 0.10 83 1023.7
20260506034012 16 227 3.2 22.5 0.08 0.10 0.10 83 1023.5
20260506033511 16 275 4.8 17.7 0.08 0.10 0.10 82 1023.7
20260506033026 16 260 4.8 17.7 0.08 0.10 0.10 82 1023.6
20260506032511 17 255 4.8 12.9 0.08 0.10 0.10 81 1023.5
20260506032011 17 263 1.6 19.3 0.08 0.10 0.10 81 1023.7
20260506031530 17 263 4.8 19.3 0.08 0.10 0.10 79 1023.8
20260506031010 17 277 6.4 24.1 0.08 0.10 0.10 78 1023.9
20260506030513 17 313 8.0 24.1 0.05 0.08 0.08 76 1024.1
20260506030028 18 292 8.0 17.7 0.00 0.03 0.03 74 1024.0
20260506025510 18 294 8.0 17.7 0.00 0.03 0.03 73 1023.9
20260506025010 18 302 4.8 17.7 0.00 0.03 0.03 73 1024.0
20260506024531 18 296 6.4 17.7 0.00 0.03 0.03 73 1024.0
20260506024010 18 294 6.4 17.7 0.00 0.03 0.03 72 1024.1
20260506023508 18 307 6.4 16.1 0.00 0.03 0.03 72 1024.3
20260506023030 18 296 4.8 16.1 0.00 0.03 0.03 72 1024.4
20260506022510 18 294 4.8 16.1 0.00 0.03 0.03 72 1024.5
20260506022012 18 294 6.4 17.7 0.00 0.03 0.03 72 1024.6
20260506021533 18 298 3.2 17.7 0.00 0.03 0.03 72 1024.7
20260506021008 18 285 4.8 14.5 0.00 0.03 0.03 73 1024.6
20260506020507 18 284 3.2 14.5 0.00 0.03 0.03 73 1024.6
20260506020033 18 285 4.8 14.5 0.00 0.03 0.03 75 1024.6
20260506015507 17 282 3.2 14.5 0.00 0.03 0.03 76 1024.5
20260506015019 17 284 6.4 14.5 0.00 0.03 0.03 76 1024.6
20260506014528 17 271 4.8 17.7 0.00 0.03 0.03 79 1024.7
20260506014009 17 266 6.4 17.7 0.00 0.03 0.03 79 1024.8
20260506013508 16 281 4.8 12.9 0.00 0.03 0.03 80 1024.9
20260506013030 16 284 4.8 12.9 0.00 0.03 0.03 81 1024.9
20260506012511 16 281 4.8 12.9 0.00 0.03 0.03 81 1024.8
20260506012008 16 276 4.8 12.9 0.00 0.03 0.03 82 1024.9
20260506011531 16 295 1.6 12.9 0.00 0.03 0.03 83 1024.9
20260506011010 16 0 0.0 4.8 0.00 0.03 0.03 83 1024.9
20260506010511 16 0 0.0 12.9 0.00 0.03 0.03 83 1024.8
20260506010044 16 297 3.2 12.9 0.00 0.03 0.03 83 1025.0
20260506005508 16 281 0.0 4.8 0.00 0.03 0.03 84 1024.9
20260506005008 16 0 0.0 4.8 0.00 0.03 0.03 84 1025.1
20260506004527 16 274 0.0 4.8 0.00 0.03 0.03 83 1025.1
20260506004010 16 0 1.6 4.8 0.00 0.03 0.03 83 1025.1
20260506003512 16 0 0.0 3.2 0.00 0.03 0.03 83 1025.1
20260506003026 15 273 0.0 4.8 0.00 0.03 0.03 83 1025.2
20260506002507 15 273 0.0 4.8 0.00 0.03 0.03 83 1025.2
20260506002011 15 0 0.0 4.8 0.00 0.03 0.03 83 1025.1
20260506001528 15 273 0.0 4.8 0.00 0.03 0.03 83 1025.1
20260506001009 15 0 0.0 6.4 0.00 0.00 0.00 83 1025.0
20260506000511 15 0 0.0 6.4 0.00 0.00 0.00 83 1025.1
20260506000027 15 0 0.0 6.4 0.00 0.00 0.00 83 1025.2
20260505235509 15 0 0.0 3.2 0.00 0.00 0.00 83 1025.0
20260505235027 16 273 0.0 3.2 0.00 0.00 0.00 84 1025.2
20260505234536 16 0 0.0 6.4 0.00 0.00 0.00 84 1025.2
20260505234012 16 0 0.0 6.4 0.00 0.00 0.00 85 1025.1
20260505233509 15 273 0.0 9.7 0.00 0.00 0.00 85 1025.2
20260505233036 15 272 0.0 9.7 0.00 0.00 0.00 84 1025.2
20260505232511 15 271 1.6 9.7 0.00 0.00 0.00 84 1025.2
20260505232009 15 259 0.0 4.8 0.00 0.00 0.00 84 1025.3
20260505231532 15 0 0.0 4.8 0.00 0.00 0.00 84 1025.3
20260505231009 14 0 0.0 4.8 0.00 0.00 0.00 84 1025.2
20260505230511 14 0 0.0 4.8 0.00 0.00 0.00 83 1025.1
20260505230028 14 259 0.0 4.8 0.00 0.00 0.00 83 1025.2
20260505225512 14 0 0.0 3.2 0.00 0.00 0.00 84 1025.1
20260505225013 14 0 0.0 6.4 0.00 0.00 0.00 83 1025.1
20260505224533 14 0 0.0 6.4 0.00 0.00 0.00 83 1024.9
20260505224011 14 258 0.0 6.4 0.00 0.00 0.00 83 1024.9
20260505223516 14 0 0.0 6.4 0.00 0.00 0.00 83 1024.8
20260505223030 13 250 1.6 6.4 0.00 0.00 0.00 83 1024.7
20260505222516 13 0 0.0 3.2 0.00 0.00 0.00 82 1024.8
20260505222013 13 249 0.0 3.2 0.00 0.00 0.00 82 1024.6
20260505221528 13 0 0.0 3.2 0.00 0.00 0.00 82 1024.7
20260505221020 13 0 0.0 3.2 0.00 0.00 0.00 82 1024.6
20260505220510 13 249 0.0 3.2 0.00 0.00 0.00 82 1024.5
20260505220027 13 0 0.0 3.2 0.00 0.00 0.00 82 1024.6
20260505215509 13 0 0.0 3.2 0.00 0.00 0.00 81 1024.4
20260505215012 13 0 0.0 1.6 0.00 0.00 0.00 81 1024.4
20260505214556 13 0 0.0 1.6 0.00 0.00 0.00 81 1024.4
20260505214014 13 0 0.0 3.2 0.00 0.00 0.00 81 1024.2
20260505213513 13 0 0.0 3.2 0.00 0.00 0.00 81 1024.3
20260505213030 13 0 0.0 1.6 0.00 0.00 0.00 81 1024.2
20260505212518 13 0 0.0 4.8 0.00 0.00 0.00 81 1024.2
20260505212014 13 0 0.0 4.8 0.00 0.00 0.00 81 1024.1
20260505211531 13 0 0.0 3.2 0.00 0.00 0.00 81 1024.2
20260505211011 13 0 0.0 1.6 0.00 0.00 0.00 81 1024.1
20260505210510 13 0 0.0 3.2 0.00 0.00 0.00 81 1024.2
20260505210030 13 0 0.0 3.2 0.00 0.00 0.00 81 1024.2
20260505205509 13 0 0.0 1.6 0.00 0.00 0.00 81 1024.2
20260505205015 13 0 0.0 4.8 0.00 0.00 0.00 81 1024.2
20260505204528 13 0 0.0 4.8 0.00 0.00 0.00 81 1024.1
20260505204017 13 0 0.0 4.8 0.00 0.00 0.00 81 1024.2
20260505203512 13 0 0.0 4.8 0.00 0.00 0.00 81 1024.1
20260505203035 13 0 0.0 4.8 0.00 0.00 0.00 81 1024.2
20260505202513 13 0 0.0 4.8 0.00 0.00 0.00 81 1024.1
20260505202013 13 0 0.0 4.8 0.00 0.00 0.00 81 1024.1
20260505201535 13 0 0.0 4.8 0.00 0.00 0.00 81 1024.0
20260505201012 13 248 0.0 4.8 0.00 0.00 0.00 81 1024.0
20260505200509 13 0 0.0 3.2 0.00 0.00 0.00 81 1024.1
20260505200029 13 248 0.0 3.2 0.00 0.00 0.00 81 1024.0
20260505195513 13 0 0.0 3.2 0.00 0.00 0.00 81 1024.1
20260505195010 13 0 0.0 3.2 0.00 0.00 0.00 81 1024.0
20260505194528 13 0 0.0 3.2 0.00 0.00 0.00 81 1024.0
20260505194014 13 0 0.0 0.0 0.00 0.00 0.00 81 1024.0
20260505193510 13 0 0.0 1.6 0.00 0.00 0.00 81 1024.1
20260505193031 13 0 0.0 4.8 0.00 0.00 0.00 81 1024.1
20260505192510 13 248 0.0 4.8 0.00 0.03 0.00 81 1024.0
20260505192009 13 248 0.0 4.8 0.00 0.03 0.00 81 1024.1
20260505191530 13 0 0.0 4.8 0.00 0.03 0.00 81 1024.0
20260505191011 13 248 0.0 4.8 0.00 0.03 0.00 81 1024.0
20260505190510 13 248 0.0 4.8 0.00 0.03 0.00 81 1024.0
20260505190027 13 0 0.0 4.8 0.00 0.03 0.00 81 1024.1
20260505185515 13 0 0.0 4.8 0.00 0.03 0.00 81 1024.1
20260505185015 13 248 0.0 4.8 0.00 0.03 0.00 81 1024.1
20260505184530 13 248 0.0 3.2 0.00 0.03 0.00 82 1024.0
20260505184012 13 0 0.0 3.2 0.00 0.03 0.00 82 1024.1
20260505183511 13 0 0.0 3.2 0.00 0.03 0.00 82 1024.2
20260505183028 13 246 0.0 3.2 0.00 0.03 0.00 82 1024.2
20260505182517 13 0 0.0 1.6 0.00 0.03 0.00 82 1024.1
20260505182010 13 0 0.0 3.2 0.00 0.03 0.00 82 1024.1
20260505181529 13 0 0.0 3.2 0.00 0.03 0.00 82 1024.1
20260505181012 13 0 0.0 3.2 0.00 0.03 0.00 82 1024.1
20260505180510 13 0 0.0 1.6 0.00 0.03 0.00 81 1024.1
20260505180054 13 0 0.0 1.6 0.00 0.03 0.00 81 1024.1
20260505175510 13 0 0.0 4.8 0.00 0.03 0.00 81 1024.3
20260505175015 13 0 0.0 4.8 0.00 0.03 0.00 81 1024.3
20260505174549 13 0 0.0 1.6 0.00 0.03 0.00 81 1024.2
20260505174012 13 0 0.0 1.6 0.00 0.03 0.00 81 1024.2
20260505173513 13 0 0.0 0.0 0.00 0.03 0.00 81 1024.4
20260505173033 13 0 0.0 1.6 0.00 0.03 0.00 81 1024.3
20260505172511 13 0 0.0 1.6 0.00 0.08 0.00 81 1024.4
20260505172012 13 0 0.0 1.6 0.00 0.08 0.00 81 1024.4
20260505171530 13 0 0.0 1.6 0.00 0.08 0.00 81 1024.5
20260505171011 13 0 0.0 1.6 0.00 0.08 0.00 81 1024.5
20260505170510 13 0 0.0 1.6 0.00 0.08 0.00 81 1024.6
20260505170028 13 0 0.0 1.6 0.00 0.08 0.00 81 1024.5
20260505165513 13 0 0.0 1.6 0.00 0.08 0.00 81 1024.7
20260505165011 13 0 0.0 3.2 0.00 0.08 0.00 81 1024.6
20260505164529 13 0 0.0 3.2 0.00 0.08 0.00 81 1024.7
20260505164012 13 246 0.0 1.6 0.00 0.08 0.00 81 1024.7
20260505163510 13 0 0.0 1.6 0.00 0.08 0.00 81 1024.7
20260505163029 13 0 0.0 1.6 0.00 0.08 0.00 81 1024.8
20260505162512 13 0 0.0 1.6 0.00 0.08 0.00 81 1024.7
20260505162010 13 0 0.0 0.0 0.00 0.08 0.00 81 1024.9
20260505161528 13 0 0.0 1.6 0.00 0.08 0.00 81 1024.9
20260505161009 13 0 0.0 1.6 0.00 0.08 0.00 81 1024.9
20260505160511 13 0 0.0 1.6 0.00 0.08 0.00 81 1025.0
20260505153029 14 0 0.0 3.2 0.00 0.08 0.00 80 1025.1
20260505152511 14 246 0.0 4.8 0.00 0.08 0.00 80 1025.1
20260505152011 14 0 0.0 4.8 0.00 0.08 0.00 80 1025.0
20260505151532 14 0 0.0 1.6 0.00 0.08 0.00 80 1025.1